Tracking 22779 objects as of 12-Apr-2021
HD Live streaming from Space Station
objects crossing your sky now

STARLINK-1781

Track STARLINK-1781 now!
10-day predictions
STARLINK-1781 is classified as:


NORAD ID: 46685
Int'l Code: 2020-073R
Perigee: 553.4 km
Apogee: 555.4 km
Inclination: 53.1 °
Period: 95.6 minutes
Semi major axis: 6925 km
RCS: Unknown
Launch date: October 18, 2020
Source: United States (US)
Launch site: AIR FORCE EASTERN TEST RANGE (AFETR)
aabbcc
Your satellite tracking list
Your tracking list is empty




NASA's NSSDC Master Catalog

Two Line Element Set (TLE):
1 46685U 20073R   21102.06404175 -.00001337  00000-0 -70877-4 0  9993
2 46685  53.0542  24.0198 0001482  73.5590 286.5562 15.06390401 27202
Source of the keplerian elements: AFSPC